RH
98 92 100 100 100 87 81 78 90 86 71 57 78 94 87 82 90 100 94 84 75 70 60 56 53 48 47 42 46 47 51 48 45 44 42 40 38 35 30 27 30 32 28 54
82 81 100 100 100 90 100 100 86 67 58 49 51 67 81 86 89 79 66 69 61 56 52 42 35 33 31 30 32 34 34 36 40 41 32 31 32 33 31 28 26 31 27 24
83 100 100 100 100 100 100 100 85 67 60 61 56 46 51 58 46 44 48 49 47 46 44 38 32 27 25 22 24 24 25 24 26 30 26 26 26 23 27 29 27 25 29 23
100 100 100 100 100 100 100 100 87 73 65 56 58 47 56 44 56 61 57 53 46 44 40 33 28 29 22 15 12 11 11 12 14 14 14 18 25 40 36 26 30 32 24 26
96 100 100 100 98 92 97 96 89 81 68 57 54 48 40 37 40 44 44 43 40 37 30 22 17 13 11 10 9 9 10 12 11 13 13 13 14 27 58 48 36 26 30 27
100 90 95 100 99 100 100 98 87 70 58 48 51 52 42 41 40 35 36 33 28 20 14 12 10 9 9 9 9 10 10 10 13 16 16 15 14 20 24 28 22 24 35 35
100 100 99 85 79 83 80 80 77 76 74 62 52 42 45 43 34 26 22 18 14 13 12 12 10 8 7 7 8 9 9 10 12 14 17 16 16 17 17 20 18 18 24 29
100 100 100 100 96 98 86 71 73 64 58 53 49 49 45 36 30 20 15 15 12 10 12 12 9 9 10 10 10 12 14 15 14 13 14 14 14 19 17 16 17 15 14 18
100 100 100 100 99 90 94 82 76 76 56 45 44 43 32 20 16 15 13 12 13 11 13 10 12 12 11 10 13 20 35 42 29 27 26 19 18 17 15 14 12 11 13 15
100 90 94 100 100 98 92 80 74 79 71 48 38 28 21 20 16 11 11 12 12 12 11 14 18 22 21 25 29 44 52 66 50 40 29 21 15 11 13 13 10 10 11 14
83 97 93 82 93 79 80 85 79 64 49 34 25 22 19 22 11 10 13 17 15 14 13 19 26 24 30 25 28 44 56 69 54 38 35 31 28 18 13 14 14 12 13 13
67 69 70 82 85 78 74 59 45 30 27 29 25 24 21 11 13 17 21 30 23 20 17 21 39 52 45 44 52 56 33 53 55 60 50 50 37 24 17 14 14 16 15 13
91 56 53 57 62 56 50 40 33 30 28 38 31 21 16 16 26 25 27 29 25 29 32 39 60 63 50 62 71 87 57 62 78 87 73 64 58 47 35 24 16 12 13 14
64 56 65 58 54 45 42 38 40 35 38 32 26 21 32 34 34 45 43 48 56 60 62 58 62 57 44 63 85 84 87 94 84 77 70 78 64 61 61 44 28 20 17 14
64 52 49 38 39 46 43 41 50 45 28 22 42 37 56 54 59 71 74 76 86 89 90 93 77 64 86 86 80 97 94 100 92 88 76 69 68 69 68 65 55 41 23 14
41 39 39 45 52 50 45 50 44 26 26 35 50 65 61 67 76 79 75 79 82 88 97 100 100 91 67 68 78 84 85 92 90 79 69 66 65 64 54 46 40 35 30 24
46 45 52 54 58 49 49 37 28 31 33 49 64 66 71 74 73 72 74 75 79 74 73 79 86 88 87 87 86 89 87 82 80 75 68 60 53 47 39 31 28 24 22 20
41 51 53 49 46 46 38 35 33 34 53 68 74 73 77 85 82 81 79 72 70 69 67 62 62 69 74 78 79 76 74 72 69 59 48 41 40 35 30 27 25 23 24 27
42 46 46 43 48 35 37 44 35 55 82 83 76 75 78 79 74 68 62 60 57 53 52 52 52 59 66 69 67 65 64 63 60 52 44 39 39 34 32 33 34 40 60 75
36 46 50 49 35 32 68 42 53 72 91 79 81 79 74 64 53 44 37 35 34 34 34 34 33 33 36 42 48 48 45 44 47 49 46 44 40 38 44 52 75 83 100 100
57 50 42 36 40 54 58 53 71 81 82 85 87 78 66 53 39 35 31 27 24 25 27 28 32 32 29 31 34 37 42 47 49 49 50 46 46 48 69 90 84 100 100 100
46 34 44 44 48 59 62 76 84 83 82 80 74 68 52 42 30 22 18 15 14 15 17 19 22 26 29 31 34 38 43 45 48 48 48 48 55 75 100 100 93 100 100 100
39 43 56 62 58 64 81 89 88 82 77 68 57 43 35 23 17 15 13 12 12 12 13 15 16 19 22 24 26 28 29 30 33 37 39 50 64 85 100 100 100 100 100 100
44 55 71 68 72 84 92 85 80 77 72 59 47 33 22 17 14 12 10 10 10 11 12 14 15 17 19 20 21 22 24 28 32 38 56 76 93 87 88 100 100 100 100 100
51 71 69 72 80 86 86 84 78 77 66 55 34 23 19 15 13 11 10 10 11 12 12 14 15 16 18 19 21 23 28 34 43 73 85 92 99 97 100 100 99 100 100 100
66 64 80 89 86 84 78 77 78 71 57 44 26 21 17 14 14 14 13 13 14 14 16 17 18 20 23 26 30 35 45 60 78 86 94 100 100 97 100 100 100 100 100 100
Wind_Speed
83 79 78 81 81 80 76 75 74 78 76 72 70 68 73 77 80 86 88 90 92 94 93 91 92 95 94 94 94 95 96 97 96 95 92 90 89 88 81 72 77 82 78 74
86 84 83 84 84 82 80 77 73 70 72 73 70 67 71 80 87 92 92 96 97 100 102 101 99 101 102 103 103 104 103 104 104 102 103 101 97 94 90 79 79 74 86 77
82 81 82 83 82 82 81 79 74 76 76 76 78 74 75 85 93 99 100 102 105 107 108 108 108 106 107 107 107 107 107 105 106 107 106 103 102 97 92 89 82 82 74 80
77 84 83 81 79 80 78 80 79 80 85 82 87 88 85 91 96 102 105 109 112 112 112 113 114 115 111 108 103 98 98 98 97 98 101 102 103 98 92 92 90 85 84 76
81 82 82 81 82 81 80 83 84 84 88 91 92 105 90 98 103 106 108 111 113 117 119 114 108 104 102 96 88 85 80 85 87 87 90 96 101 101 98 96 93 89 86 81
83 87 84 84 85 86 88 89 90 93 96 97 95 109 102 105 109 106 108 109 110 111 109 102 90 87 85 81 77 75 75 73 77 79 86 91 99 102 102 98 95 92 93 88
85 84 87 86 87 91 92 97 98 99 102 103 106 108 110 109 111 108 105 105 99 93 89 86 79 75 74 73 71 68 68 67 67 71 78 86 92 97 97 97 96 93 94 93
88 87 91 92 92 95 96 99 102 107 108 110 111 113 114 115 111 103 96 92 86 79 78 75 71 64 66 65 65 65 58 58 60 61 66 75 83 89 95 96 97 95 94 93
93 93 98 99 101 102 102 104 107 113 114 114 112 114 112 109 101 90 85 75 73 70 70 66 61 59 60 62 61 60 51 49 52 53 55 63 71 78 82 86 86 86 87 90
96 97 98 101 105 106 109 110 112 113 114 113 111 108 102 95 84 75 68 69 68 63 61 56 57 55 56 53 47 43 45 54 54 53 52 53 63 72 75 77 76 77 79 83
103 104 104 104 106 109 108 110 114 114 112 110 101 90 83 80 71 60 59 60 58 56 52 53 52 52 54 47 45 42 42 44 39 40 44 47 52 60 65 65 69 74 76 78
107 105 103 103 106 107 108 109 111 109 100 91 84 69 73 66 56 50 50 50 51 51 50 46 45 47 47 42 40 42 41 41 38 38 42 43 48 50 55 59 64 68 72 75
110 105 103 102 103 102 104 103 96 90 81 70 73 63 59 50 48 45 45 47 49 49 47 45 44 47 45 40 38 41 41 37 39 46 43 44 45 44 48 52 56 61 67 70
108 103 100 99 97 92 87 84 79 75 68 66 58 52 51 48 43 39 40 41 42 46 49 50 49 49 40 38 41 43 39 42 46 45 43 44 45 42 44 45 48 51 56 63
96 93 91 82 76 74 74 70 67 69 61 52 48 47 46 44 39 35 35 36 38 41 44 46 45 36 39 42 40 42 42 47 45 45 45 43 41 41 41 43 45 50 52 54
82 77 73 69 67 69 65 64 66 57 50 45 44 46 46 39 36 37 36 36 34 33 36 37 36 36 36 33 35 39 42 43 46 46 42 42 41 40 41 43 43 43 43 43
74 71 70 67 68 68 62 57 51 48 45 43 42 42 43 40 37 36 37 38 38 39 39 39 39 38 38 39 40 42 42 43 44 42 40 40 40 37 38 38 36 35 35 37
70 69 69 64 64 61 51 47 47 44 42 40 41 40 35 35 36 39 41 40 41 42 42 42 41 41 42 44 44 44 43 43 41 39 39 35 34 34 33 32 30 28 27 26
56 57 58 58 56 47 41 46 43 40 37 42 39 38 37 41 45 47 46 48 48 49 48 47 45 45 45 44 43 43 43 41 41 41 39 35 32 30 28 27 25 22 22 24
46 48 51 50 45 38 41 42 39 36 39 38 40 41 44 48 48 48 48 46 47 47 47 48 46 45 44 43 43 43 43 41 41 40 37 32 28 26 25 24 23 23 27 26
44 43 43 41 38 36 43 39 38 36 38 39 41 45 48 51 49 48 44 40 39 37 38 38 39 40 41 40 41 39 38 38 37 35 31 28 26 26 26 27 27 26 30 29
40 37 36 38 36 38 38 37 37 37 37 40 43 47 49 49 44 42 39 35 33 32 32 33 32 33 32 32 32 32 33 32 31 31 29 28 29 28 32 32 29 28 34 32
35 33 35 36 36 34 35 36 38 38 40 42 45 44 40 40 39 37 35 33 31 28 28 29 28 28 28 27 28 28 29 30 30 28 27 30 30 32 37 37 34 32 36 36
33 35 35 35 35 34 36 37 36 38 41 43 41 37 36 36 35 33 31 29 27 25 24 24 24 24 25 25 26 27 28 30 29 29 30 32 33 37 37 41 38 35 35 43
34 34 35 34 33 34 33 35 35 37 40 38 34 33 33 32 29 26 24 22 21 20 21 21 21 21 22 23 25 27 28 29 28 30 32 35 37 38 38 45 43 40 40 42
33 31 31 34 32 31 32 32 35 37 35 33 31 30 29 28 24 19 17 16 15 16 16 17 18 19 21 23 25 27 28 29 31 33 34 36 41 41 39 42 44 49 47 47
Wind_Direction
283 284 282 280 280 281 280 278 278 278 277 277 279 279 278 280 279 275 276 277 279 279 278 277 276 275 274 272 272 272 272 270 267 267 266 266 267 267 263 246 245 245 239 239
280 281 278 278 280 282 280 277 276 275 277 279 280 278 278 279 277 277 279 279 280 280 279 279 278 278 276 274 273 272 270 268 268 267 267 264 261 262 263 259 243 244 240 237
280 277 274 276 277 277 275 275 273 276 280 283 283 280 280 280 281 282 281 281 281 281 281 281 282 281 281 277 274 272 270 266 261 260 263 262 260 257 257 258 256 240 240 236
272 271 273 273 274 274 276 277 277 278 281 282 285 283 286 283 284 284 285 284 284 284 285 284 282 282 280 277 276 273 271 267 263 260 257 255 255 255 254 254 255 253 237 239
270 268 271 272 271 273 274 276 279 280 281 280 285 283 282 284 284 284 284 284 284 285 285 284 282 279 279 278 274 272 266 261 260 258 257 255 254 250 249 250 251 251 249 240
267 269 269 270 274 276 277 280 281 281 280 281 282 286 286 283 284 285 284 283 283 284 283 282 280 278 276 274 274 269 266 261 256 255 253 250 249 248 247 247 249 249 248 246
268 270 271 272 273 275 277 279 282 284 285 286 284 284 288 285 286 286 287 287 284 281 279 280 279 277 274 272 270 268 263 261 256 252 250 251 250 251 251 249 248 244 244 244
271 274 274 275 277 279 280 282 284 285 286 286 286 287 286 287 288 289 288 286 283 281 278 276 275 273 272 271 271 268 262 258 257 254 251 248 248 248 249 249 248 246 242 240
270 273 277 279 278 280 281 283 284 287 286 285 286 287 289 289 290 290 288 282 279 277 274 275 275 271 268 266 263 260 255 263 257 251 247 247 245 246 245 246 246 243 243 242
272 271 273 276 278 280 282 284 284 286 287 287 287 289 290 289 288 287 281 277 277 275 273 272 269 269 268 266 264 268 270 257 256 253 251 251 250 249 248 248 248 247 244 242
270 272 274 276 278 279 282 284 284 285 288 289 290 291 288 287 289 284 280 277 276 274 273 271 269 270 263 264 267 265 258 256 256 257 257 255 254 255 253 250 248 247 246 247
270 270 273 275 277 280 283 284 285 286 287 288 288 289 287 287 290 285 277 272 270 270 270 271 269 264 268 268 274 273 264 262 265 266 267 260 257 255 255 252 247 245 244 244
272 272 272 274 278 281 283 285 287 288 289 289 289 289 285 290 287 280 275 271 267 266 267 265 265 265 262 265 268 267 266 265 268 267 267 261 259 256 254 253 252 249 247 246
273 273 275 278 280 281 282 283 287 286 287 286 287 287 289 289 287 282 277 271 266 265 264 265 265 263 273 273 270 265 266 269 271 268 265 263 262 260 259 256 254 252 250 248
273 274 276 277 277 280 281 284 284 286 283 284 283 287 285 289 289 279 271 267 263 260 259 263 266 266 267 262 261 260 262 267 266 266 264 264 266 267 264 257 251 246 248 249
270 272 274 273 276 277 281 285 281 280 280 281 282 284 286 282 273 272 269 264 260 259 261 260 259 260 260 260 258 257 257 260 261 263 268 272 269 263 259 255 254 253 251 249
268 270 274 273 275 277 284 277 277 277 279 280 281 279 278 277 277 275 268 264 263 262 258 257 256 256 256 257 258 259 260 260 264 272 272 264 260 262 258 258 257 252 248 245
269 268 269 269 270 277 274 273 273 277 277 279 278 281 280 276 273 272 272 271 268 266 265 265 264 264 264 263 263 264 265 266 268 268 267 267 266 262 256 254 253 251 246 238
258 260 263 265 271 270 269 268 274 276 276 274 281 279 280 282 278 275 274 273 272 272 271 268 266 264 262 261 261 262 264 265 267 269 271 271 265 256 251 251 246 237 215 206
251 253 258 264 262 263 265 270 273 274 273 281 279 281 284 283 281 279 278 276 274 270 267 266 265 262 260 259 258 259 260 263 264 266 266 263 255 250 244 234 223 210 200 198
244 251 254 254 257 261 264 269 269 272 279 281 280 282 284 284 284 284 283 280 274 269 264 261 258 257 256 255 255 256 256 255 255 255 253 251 244 238 225 218 215 210 204 206
240 244 246 251 258 260 264 267 271 277 279 283 285 285 285 285 284 283 282 280 274 268 261 258 254 253 252 251 248 246 245 245 243 242 241 236 232 226 216 218 222 214 207 213
234 239 244 251 257 262 264 267 273 280 284 286 286 285 285 285 286 286 284 280 273 266 258 255 253 249 247 245 243 240 238 238 238 236 236 234 231 221 217 219 224 219 212 215
234 237 242 252 257 260 262 269 276 283 288 289 288 291 289 287 285 282 279 275 269 263 253 248 244 241 238 235 233 233 232 231 231 230 227 227 226 226 224 221 224 226 224 218
235 237 245 252 256 260 267 274 282 288 288 292 292 291 291 289 286 280 276 268 261 253 247 242 239 236 233 230 228 228 228 229 229 226 226 225 225 226 228 226 225 225 226 228
235 243 250 253 259 264 271 281 287 289 294 291 291 292 293 291 285 280 271 259 249 240 235 229 225 222 221 221 223 225 225 225 225 228 229 228 231 234 233 235 237 233 233 233